Content
SEND FEEDBACK

Daily
Averages
Monthly
Summary
Canada

FRONTIER, SASKATCHEWAN


Home > North America > Canada > Saskatchewan
Elevation: 2956 feet     Latitude: 49 12N     Longitude: 108 34W

WEATHER
 
SELECT A DAY
Number of Records: 148,524;   Date Range: 1/1/95 - 8/26/14
 
SHARE

PRINT THIS DATA

[ ← Previous Day ]
WEATHER ALMANAC - JANUARY 31, 2013
[ Next Day → ]
[ °C ]   °F
Weather ElementAverageHighLow
Temperature-5.6 °F7.3 °F (11:00 pm)-17.3 °F (12:00 am)
Dewpoint-9.3 °F5 °F (11:00 pm)-22.5 °F (12:00 am)
Humidity82 %91 % (9:00 pm)67 % (3:00 am)
Barometer30.28 in30.42 in (5:00 am)30.07 in (11:00 pm)
Wind Speed3.5 mph20.7 mph (12:00 am)
Weather ElementAverage
Wind DirectionESE (127.6 °)

Weather ElementTotal
Precipitation---
Heating Degree Days70 (Base 65)
Averaged from 30 records on January 31, 2013
WEATHER CONDITIONS BREAKOUT
WIND DIRECTION BREAKOUT
WEATHER BY HOUR - JANUARY 31, 2013
[ °C ]   °F
Local TimeTemperatureDewpointHumidityBarometerVisibilityWind DirectionWind SpeedGust SpeedPrecipitationEventsConditions
12:00 AM-17.3 °F-22.5 °F77 %30.33 inNW (320°)20.7 mph
1:00 AM-16.6 °F-21.6 °F78 %30.35 inNW (310°)12.7 mph
2:00 AM-15.3 °F-20.6 °F77 %30.35 inNNW (330°)13.8 mph
3:00 AM-15.0 °F-20.0 °F67 %30.37 inNW (310°)9.2 mph
3:00 AM-15.0 °F-19.8 °F79 %30.37 inNW (310°)9.2 mph
4:00 AM-13.2 °F-17.9 °F80 %30.39 inWest (270°)4.6 mph
5:00 AM-12.1 °F-16.6 °F80 %30.42 inWest (270°)8.1 mph
6:00 AM-11.7 °F-16.6 °F79 %30.38 inCalm
6:00 AM-12.0 °F-17.0 °F69 %30.38 inCalm
7:00 AM-9.6 °F-13.7 °F82 %30.37 inCalm
8:00 AM-7.6 °F-11.6 °F83 %30.35 inWest (280°)1.2 mph
9:00 AM-7.0 °F-11.0 °F72 %30.37 inWSW (250°)6.9 mph
9:00 AM-7.4 °F-11.2 °F84 %30.37 inWSW (250°)6.9 mph
10:00 AM-6.9 °F-10.7 °F84 %30.36 inCalm
11:00 AM-6.3 °F-10.5 °F82 %30.36 inCalm
12:00 PM-5.3 °F-9.0 °F84 %30.34 inCalm
12:00 PM-5.0 °F-9.0 °F74 %30.34 inCalm
1:00 PM-4.5 °F-8.1 °F84 %30.31 inCalm
2:00 PM-3.1 °F-6.5 °F85 %30.26 inCalm
3:00 PM-2.0 °F-5.0 °F80 %30.23 inCalm
3:00 PM-1.7 °F-5.1 °F85 %30.23 inCalm
5:00 PM-0.4 °F-3.3 °F88 %30.21 inCalm
6:00 PM0.3 °F-2.4 °F88 %30.18 inCalm
6:00 PM0.0 °F-2.0 °F84 %30.18 inCalm
7:00 PM1.8 °F-0.9 °F88 %30.16 inCalm
8:00 PM3.6 °F1.2 °F90 %30.13 inCalm
9:00 PM4.0 °F2.0 °F85 %30.12 inCalm
9:00 PM3.9 °F1.8 °F91 %30.12 inCalm
10:00 PM5.5 °F3.2 °F90 %30.10 inCalm
11:00 PM7.3 °F5.0 °F90 %30.07 inWNW (290°)10.4 mph
Hourly data recorded from CWEH, located miles away from Frontier, Saskatchewan







STORIES FROM OUR PARTNERS